Northeast Philadelphia, PA

8:55 PM EDT on October 16, 2019 (GMT -0400)
Northeast Philadelphia

Weather History for KPNE - August, 2019

Change the Weather History Date:

Sunday, August 4, 2019

  Actual Average Record
Temperature  
Mean Temperature 82 °F -  
Max Temperature 91 °F 83 °F 96 °F (2005)
Min Temperature 73 °F 65 °F 61 °F (1998)
Cooling Degree Days 17    
Growing Degree Days 32 (Base 50)    
Moisture  
Dew Point 64 °F    
Average Humidity 56    
Maximum Humidity 82    
Minimum Humidity 32    
Precipitation  
Precipitation 0.00 in - - ()
Sea Level Pressure  
Sea Level Pressure 29.93 in    
Wind  
Wind Speed 4 mph (North)    
Max Wind Speed 9 mph    
Max Gust Speed 16 mph    
Visibility 10 miles    
Events      
Averages and records for this station are not official NWS values.
T = Trace of Precipitation, MM = Missing Value Source: NWS Daily Summary

Daily Weather History Graph

Daily Weather History Graph

Search for Another Location

Airport or City:

Astronomy

Aug. 04, 2019 Rise Set
Actual Time 6:00 AM EDT 8:10 PM EDT
Civil Twilight 5:30 AM EDT 8:40 PM EDT
Nautical Twilight 4:53 AM EDT 9:17 PM EDT
Astronomical Twilight 4:13 AM EDT 9:57 PM EDT
Moon 10:03 AM EDT (8/4) 10:48 PM EDT (8/4)
Length of Visible Light 15h 10m
Length of Day
14h 10m
Waxing Crescent, 18% of the Moon is Illuminated
Aug 4
Waxing Crescent
Aug 7
First Quarter
Aug 15
Full
Aug 23
Last Quarter
Aug 30
New

Hourly Weather History & Observations

Time (EDT) Temp. Heat Index Dew Point Humidity Pressure Visibility Wind Dir Wind Speed Gust Speed Precip Events Conditions
12:54 AM 78.1 °F - 68.0 °F 71% 29.97 in 10.0 mi SW 3.5 mph - N/A   Clear
1:54 AM 78.1 °F - 68.0 °F 71% 29.95 in 10.0 mi Calm Calm - N/A   Clear
2:54 AM 75.9 °F - 69.1 °F 79% 29.94 in 10.0 mi West 3.5 mph - N/A   Partly Cloudy
3:54 AM 77.0 °F - 70.0 °F 79% 29.93 in 10.0 mi NNW 4.6 mph - N/A   Overcast
4:54 AM 75.9 °F - 68.0 °F 76% 29.91 in 10.0 mi Calm Calm - N/A   Overcast
5:54 AM 73.9 °F - 68.0 °F 82% 29.91 in 10.0 mi NNE 5.8 mph - N/A   Clear
6:54 AM 75.0 °F - 68.0 °F 79% 29.93 in 10.0 mi North - - N/A   Clear
7:54 AM 78.1 °F - 66.9 °F 68% 29.94 in 10.0 mi NNW 3.5 mph - N/A   Partly Cloudy
8:54 AM 81.0 °F 83.8 °F 68.0 °F 65% 29.94 in 10.0 mi North 5.8 mph - N/A   Mostly Cloudy
9:54 AM 84.0 °F 85.4 °F 64.0 °F 51% 29.95 in 10.0 mi NE 8.1 mph - N/A   Clear
10:54 AM 87.1 °F 87.8 °F 63.0 °F 44% 29.95 in 10.0 mi NE 8.1 mph - N/A   Scattered Clouds
11:54 AM 87.1 °F 87.8 °F 63.0 °F 44% 29.94 in 10.0 mi Variable 6.9 mph - N/A   Clear
12:54 PM 90.0 °F 90.6 °F 63.0 °F 40% 29.93 in 10.0 mi North - - N/A   Partly Cloudy
1:54 PM 88.0 °F 87.6 °F 60.1 °F 39% 29.91 in 10.0 mi NE 9.2 mph 16.1 mph N/A   Partly Cloudy
2:54 PM 91.0 °F 90.5 °F 60.1 °F 35% 29.91 in 10.0 mi WNW 5.8 mph - N/A   Partly Cloudy
3:54 PM 91.0 °F 90.2 °F 59.0 °F 34% 29.89 in 10.0 mi Calm Calm - N/A   Clear
4:54 PM 91.0 °F 90.0 °F 57.9 °F 33% 29.89 in 10.0 mi NNE 4.6 mph - N/A   Clear
5:54 PM 91.0 °F 89.7 °F 57.0 °F 32% 29.89 in 10.0 mi Calm Calm - N/A   Clear
6:54 PM 90.0 °F 89.1 °F 59.0 °F 35% 29.89 in 10.0 mi NNE 4.6 mph - N/A   Clear
7:54 PM 87.1 °F 86.7 °F 60.1 °F 40% 29.91 in 10.0 mi North 3.5 mph - N/A   Clear
8:54 PM 81.0 °F 82.2 °F 63.0 °F 54% 29.92 in 10.0 mi ESE 3.5 mph - N/A   Scattered Clouds
9:54 PM 81.0 °F 83.3 °F 66.9 °F 62% 29.94 in 10.0 mi Calm Calm - N/A   Clear
10:54 PM 79.0 °F - 69.1 °F 72% 29.94 in 10.0 mi WNW 3.5 mph - N/A   Partly Cloudy
11:54 PM 80.1 °F 82.1 °F 66.0 °F 62% 29.94 in 10.0 mi North 9.2 mph - N/A   Clear